Tracking 35274 objects as of 10-Sep-2026
HD Live streaming from Space Station
objects crossing your sky now

STARLINK-2104

Track STARLINK-2104 now!
10-day predictions
STARLINK-2104 is classified as:


NORAD ID: 47384
Int'l Code: 2021-005AM
Launch date: January 20, 2021
Source: United States (US)
Launch site: AIR FORCE EASTERN TEST RANGE (AFETR)
Your satellite tracking list
Your tracking list is empty




NASA's NSSDC Master Catalog

Two Line Element Set (TLE):
1 47384U 21005AM  26252.32235616 -.00000040  00000-0  10479-4 0  9999
2 47384  53.1584 262.8576 0001056  88.6580 271.4543 15.31700173311512
Source of the keplerian elements: AFSPC